Location: Antichan
(42.9728°N, 0.6667°E)
Time: 12:17:27
(UTC+00:00)

Lacrosse 4 Rocket - Pass Details

Date: 15 August 2020
Orbit: 544 x 615 km, 68.0° (Epoch: 25 September)

Event Time Altitude Azimuth Distance (km) Brightness Sun altitude
Exits shadow 23:13:46 17° 305° (NW) 1,485 3.9 -32.3°
Maximum altitude 23:14:12 17° 313° (NW) 1,472 4.0 -32.3°
Drops below altitude 10° 23:17:00 10° 355° (N) 1,867 4.9 -32.4°
Sets 23:19:52 0° 16° (NNE) 2,753 5.7 -32.6°
